Back to catalog

STRIX-BETA DEB

LostSSO
NORAD 53461·DEBRIS·🇯🇵 Japan

Launched Feb 28, 2022 from Rocket Lab Launch Complex 1

Loading…

Next Passes (next 24 hours)

TLE

StaleSource: Space-Track

Epoch: Sep 10, 2022, 09:35 UTC

1 53461U 22020E   22253.39954434  .00002995  00000-0  23730-3 0  9993
2 53461  97.7512 307.1192 0010284   2.6328 357.4948 15.01305959  5868

Track STRIX-BETA DEB in real time with AllMySat

Download on the App Store